Location: Bullenkuhlen
(53.7689°N, 9.7495°E)
Time: 08:54:32
(UTC+00:00)

Cosmos 2208 Rocket - Pass Details

Date: 09 April 2020
Orbit: 754 x 806 km, 74.0° (Epoch: 06 June)

Event Time Altitude Azimuth Distance (km) Brightness Sun altitude
Rises 19:44:53 0° 335° (NNW) 3,223 8.3 -13.2°
Reaches altitude 10° 19:47:20 10° 341° (NNW) 2,297 7.3 -13.5°
Maximum altitude 19:52:23 48° 56° (NE) 988 4.4 -14.1°
Enters shadow 19:55:30 22° 121° (ESE) 1,621 5.1 -14.5°
